User: anonymous   Login
Location: Unspecified
(0.0000°N, 0.0000°E)
Time: 14:46:03
(UTC+00:00)
Language:

COSMOS 2454 - Orbit

View from above orbital plane
View from above orbital plane
View from above satellite
View from above satellite

Ground track
Ground track

The orbit data is extracted from the following two-line orbital elements,

1 35635U 09039A   17206.13096587 +.00000036 +00000-0 +16833-4 0  9992
2 35635 082.9578 329.8101 0018649 189.9347 170.1454 13.89614613406325
Epoch (UTC): 25 July 2017 03:08:35
Eccentricity: 0.0018649
inclination: 82.9578°
perigee height: 916 km
apogee height: 943 km
right ascension of ascending node: 329.8101°
argument of perigee: 189.9347°
revolutions per day: 13.89614613
mean anomaly at epoch: 170.1454°
orbit number at epoch: 40632

The dashed part of the orbit path shows where the satellite is in the earth's shadow,  

DLR